PEGASUS DEB, 39913

Orbit data source: Space-Track

PEGASUS DEB, 39913 is space debris in LEO originally from a launch on Thu, 19 May 1994 UTC launched from the Air Force Western Test Range (AFWTR). Debris objects in space refer to the collection of defunct objects orbiting the Earth. Examples of debris include non-operational satellites, rocket bodies, and fragments generated from explosions, collisions, or faulty payload assembly.

Loading next visibility...
Identifier
39913, 1994-029AFL
Orbit
LEO
Country
Flag of USUS
Related business
Manufacturer
Unknown
Mission
Spacecraft
Bus & Motor
Unknown
Mass
Unknown
Launch date (UTC)
1994-05-19 (32 years ago)
Launch vehicle
Unknown
Launch site
Air Force Western Test Range (AFWTR)
Object type
Payload
Rocket body
Debris
Shape & HBR
Unknown shape, 0.1 m
Radar Cross Section
Small (<0.1 m²)

Expand to show TLE details & history
Last TLE update: 4 days ago

TLE from 4 days ago
0 PEGASUS DEB
1 39913U 94029AFL 26174.09938738  .00001656  00000-0  51938-3 0  9993
2 39913  81.5644 118.8463 0508900 280.3115  74.1067 13.85303581116424
Epoch: 2026-06-23T02:23Z
TLE epoch observation values (Epoch: 2026-06-23T02:23:07.069Z)
Latitude
-0.0001°
Longitude
171.79102°
Altitude
863.837 km
Speed
7.463 km/s
True Right ascension
07h 55m 23s
True Declination
0° 00' 00"
Sunlit
Object was in daylight at epoch
Visualization orbit readout
Latitude
Unknown
Longitude
Unknown
Altitude
Unknown
Speed
Unknown
Apparent Right ascension
Unknown
Apparent Declination
Unknown
Sunlit
N/A
Visualization observer readout
Local Sidereal Time
23:03:10
Azimuth
Unknown
Elevation
Unknown
Doppler factor
Unknown
Orbital elements
Apogee altitude
1,314.855 km
Perigee altitude
569.779 km
Semi-major axis
7,320.454 km
Eccentricity
0.05089
Inclination
81.5644°
RAAN
118.8463°
Arg. of periapsis
280.3115°
True anomaly
79.80528°
Mean anomaly
74.1067°
Eccentric anomaly
76.94714°
Mean motion
3.46526 °/min
Orbital period
103.89 mins
BSTAR
0.00051938
Loading maneuver chart data...
Computing Atmospheric mass density...

Documentation

Showing up to 5 results
|